Change the Weather History Date:

Wednesday, January 8, 2014

  Actual Average (KBRL) Record (KBRL)
Temperature  
Mean Temperature 8 °F 26 °F  
Max Temperature 14 °F 34 °F 65 °F (2003)
Min Temperature 3 °F 17 °F -17 °F (1970)
Degree Days  
Heating Degree Days 56 39  
Month to date heating degree days 312  
Since 1 July heating degree days 2498  
Cooling Degree Days 0 0  
Month to date cooling degree days 0  
Year to date cooling degree days 0  
Moisture  
Dew Point 4 °F    
Average Humidity 77    
Maximum Humidity 86    
Minimum Humidity 68    
Precipitation  
Precipitation 0.00 in 0.05 in 0.29 in (2008)
Month to date precipitation 0.35  
Year to date precipitation 0.35  
Sea Level Pressure  
Sea Level Pressure 30.41 in    
Wind  
Wind Speed 4 mph (NNE)    
Max Wind Speed 10 mph    
Max Gust Speed -    
Visibility 10 miles    
Events Snow    
T = Trace of Precipitation, MM = Missing Value Source: NWS Daily Summary

Daily Weather History Graph

Daily Weather History Graph

Search for Another Location

Airport or City:

Trip Planner

Search our weather history database for the weather conditions in past years. The results will help you decide how hot, cold, wet, or windy it might be!

Date:

Astronomy

Jan. 08, 2014 Rise Set
Actual Time 7:25 AM CST 4:53 PM CST
Civil Twilight 6:55 AM CST 5:23 PM CST
Nautical Twilight 6:21 AM CST 5:57 PM CST
Astronomical Twilight 5:48 AM CST 6:30 PM CST
Moon 11:46 AM CST (1/8) 12:30 AM CST (1/8)
Length of Visible Light 10h 27m
Length of Day
9h 27m
First Quarter, 56% of the Moon is Illuminated
Jan 8
First Quarter
Jan 15
Full
Jan 23
Last Quarter
Jan 30
New
Feb 6
First Quarter

Hourly Weather History & Observations

Time (CST) Temp. Windchill Dew Point Humidity Pressure Visibility Wind Dir Wind Speed Gust Speed Precip Events Conditions
12:15 AM 3.7 °F - -0.4 °F 83% 30.26 in 10.0 mi Calm Calm - N/A   Scattered Clouds
12:35 AM 3.0 °F - -0.6 °F 85% 30.26 in 10.0 mi Calm Calm - N/A   Clear
12:55 AM 3.9 °F - 0.3 °F 85% 30.26 in 10.0 mi Calm Calm - N/A   Clear
1:15 AM 3.6 °F -3.8 °F -0.0 °F 85% 30.26 in 10.0 mi North 3.5 mph - N/A   Clear
1:35 AM 3.4 °F - -0.4 °F 84% 30.27 in 10.0 mi Calm Calm - N/A   Clear
1:55 AM 4.1 °F -3.2 °F 0.5 °F 85% 30.28 in 10.0 mi North 3.5 mph - N/A   Scattered Clouds
2:15 AM 3.9 °F - 0.3 °F 85% 30.29 in 10.0 mi Calm Calm - N/A   Scattered Clouds
2:35 AM 3.7 °F - 0.5 °F 86% 30.29 in 10.0 mi Calm Calm - N/A   Scattered Clouds
2:55 AM 5.5 °F - 2.3 °F 86% 30.30 in 10.0 mi Calm Calm - N/A   Overcast
3:15 AM 6.6 °F -0.3 °F 3.0 °F 85% 30.30 in 10.0 mi North 3.5 mph - N/A   Mostly Cloudy
3:35 AM 7.7 °F 1.0 °F 3.7 °F 84% 30.31 in 10.0 mi North 3.5 mph - N/A   Scattered Clouds
3:55 AM 7.9 °F 1.2 °F 3.9 °F 84% 30.31 in 10.0 mi North 3.5 mph - N/A   Scattered Clouds
4:15 AM 7.7 °F - 3.9 °F 85% 30.32 in 10.0 mi Calm Calm - N/A   Scattered Clouds
4:35 AM 7.7 °F - 4.1 °F 85% 30.32 in 10.0 mi Calm Calm - N/A   Clear
4:55 AM 7.7 °F - 3.7 °F 84% 30.33 in 10.0 mi Calm Calm - N/A   Clear
5:15 AM 8.1 °F - 4.1 °F 84% 30.33 in 10.0 mi Calm Calm - N/A   Clear
5:35 AM 8.4 °F -0.1 °F 4.1 °F 83% 30.33 in 10.0 mi North 4.6 mph - N/A   Clear
5:55 AM 8.6 °F 2.0 °F 4.3 °F 83% 30.34 in 10.0 mi North 3.5 mph - N/A   Scattered Clouds
6:15 AM 9.0 °F 2.4 °F 4.6 °F 83% 30.35 in 10.0 mi North 3.5 mph - N/A   Scattered Clouds
6:35 AM 9.3 °F -0.5 °F 4.5 °F 81% 30.35 in 10.0 mi North 5.8 mph - N/A   Clear
6:55 AM 9.5 °F -0.3 °F 4.6 °F 81% 30.36 in 10.0 mi North 5.8 mph - N/A   Scattered Clouds
7:15 AM 9.7 °F -3.3 °F 4.1 °F 78% 30.37 in 10.0 mi NNE 9.2 mph - N/A   Clear
7:35 AM 9.7 °F -2.4 °F 4.3 °F 79% 30.38 in 10.0 mi NNE 8.1 mph - N/A   Clear
7:55 AM 9.9 °F 0.2 °F 4.1 °F 78% 30.39 in 10.0 mi North 5.8 mph - N/A   Scattered Clouds
8:15 AM 9.9 °F -3.1 °F 4.1 °F 78% 30.40 in 10.0 mi North 9.2 mph - N/A   Scattered Clouds
8:35 AM 9.9 °F -1.1 °F 4.1 °F 78% 30.41 in 10.0 mi NNE 6.9 mph - N/A   Scattered Clouds
8:55 AM 10.0 °F 0.4 °F 4.5 °F 78% 30.42 in 10.0 mi NNE 5.8 mph - N/A   Clear
9:15 AM 10.4 °F 2.2 °F 4.3 °F 76% 30.44 in 10.0 mi NNE 4.6 mph - N/A   Clear
9:35 AM 10.4 °F 2.2 °F 3.6 °F 74% 30.45 in 10.0 mi NE 4.6 mph - N/A   Clear
9:55 AM 10.4 °F -0.4 °F 4.1 °F 76% 30.45 in 10.0 mi NNE 6.9 mph - N/A   Clear
10:15 AM 10.8 °F 0.0 °F 4.5 °F 76% 30.45 in 10.0 mi NNE 6.9 mph - N/A   Clear
10:35 AM 10.9 °F 0.2 °F 4.6 °F 76% 30.45 in 10.0 mi NE 6.9 mph - N/A   Clear
10:55 AM 11.3 °F 0.7 °F 5.0 °F 76% 30.44 in 10.0 mi NE 6.9 mph - N/A   Clear
11:15 AM 11.3 °F 3.3 °F 5.0 °F 76% 30.44 in 10.0 mi ENE 4.6 mph - N/A   Clear
11:35 AM 11.8 °F - 5.0 °F 74% 30.44 in 10.0 mi Calm Calm - N/A   Clear
11:55 AM 12.0 °F 5.9 °F 5.4 °F 75% 30.43 in 10.0 mi NNE 3.5 mph - N/A   Clear
12:15 PM 12.2 °F 6.1 °F 5.2 °F 73% 30.43 in 10.0 mi NNE 3.5 mph - N/A   Clear
12:35 PM 12.9 °F 5.2 °F 5.4 °F 72% 30.42 in 10.0 mi North 4.6 mph - N/A   Scattered Clouds
12:55 PM 13.1 °F 4.0 °F 5.7 °F 72% 30.42 in 10.0 mi North 5.8 mph - N/A   Mostly Cloudy
1:15 PM 13.5 °F 3.3 °F 6.1 °F 72% 30.42 in 10.0 mi North 6.9 mph - N/A   Mostly Cloudy
1:35 PM 13.6 °F 3.5 °F 6.3 °F 72% 30.43 in 10.0 mi North 6.9 mph - N/A   Mostly Cloudy
1:55 PM 14.0 °F 6.5 °F 6.3 °F 71% 30.44 in 10.0 mi North 4.6 mph - N/A   Overcast
2:15 PM 14.0 °F 5.1 °F 6.8 °F 73% 30.44 in 7.0 mi North 5.8 mph - N/A Snow Light Snow
2:35 PM 14.4 °F 5.5 °F 6.6 °F 71% 30.44 in 7.0 mi North 5.8 mph - N/A Snow Light Snow
2:55 PM 14.2 °F 4.1 °F 7.9 °F 76% 30.45 in 5.0 mi North 6.9 mph - N/A Snow Light Snow
3:15 PM 13.6 °F 2.5 °F 9.0 °F 82% 30.45 in 1.2 mi North 8.1 mph - N/A Snow Light Snow
3:35 PM 13.6 °F 0.7 °F 7.9 °F 78% 30.45 in 5.0 mi North 10.4 mph - N/A Snow Light Snow
3:55 PM 13.5 °F 0.5 °F 5.7 °F 71% 30.46 in 5.0 mi North 10.4 mph - N/A Snow Light Snow
4:15 PM 13.1 °F 0.9 °F 5.4 °F 71% 30.46 in 10.0 mi North 9.2 mph - N/A   Scattered Clouds
4:35 PM 13.1 °F 0.1 °F 5.4 °F 71% 30.46 in 10.0 mi North 10.4 mph - N/A   Mostly Cloudy
4:55 PM 13.1 °F 0.9 °F 5.0 °F 70% 30.47 in 10.0 mi North 9.2 mph - N/A   Scattered Clouds
5:15 PM 13.1 °F 2.8 °F 4.3 °F 68% 30.47 in 10.0 mi NNE 6.9 mph - N/A   Scattered Clouds
5:35 PM 13.1 °F 5.4 °F 4.6 °F 69% 30.47 in 10.0 mi NNE 4.6 mph - N/A   Scattered Clouds
5:55 PM 13.1 °F 2.8 °F 5.5 °F 72% 30.48 in 10.0 mi NNE 6.9 mph - N/A   Mostly Cloudy
6:15 PM 13.1 °F 2.8 °F 5.4 °F 71% 30.48 in 10.0 mi NNE 6.9 mph - N/A   Overcast
6:35 PM 12.9 °F 2.6 °F 5.2 °F 71% 30.48 in 10.0 mi NNE 6.9 mph - N/A   Overcast
6:55 PM 12.9 °F 2.6 °F 4.5 °F 69% 30.48 in 10.0 mi NE 6.9 mph - N/A   Overcast
7:15 PM 12.9 °F 2.6 °F 4.5 °F 69% 30.49 in 10.0 mi NNE 6.9 mph - N/A   Overcast
7:35 PM 12.7 °F 1.4 °F 4.6 °F 70% 30.49 in 10.0 mi NNE 8.1 mph - N/A   Overcast
7:55 PM 12.6 °F 2.2 °F 4.5 °F 70% 30.49 in 10.0 mi NE 6.9 mph - N/A   Mostly Cloudy
8:15 PM 12.2 °F 4.3 °F 4.6 °F 72% 30.49 in 10.0 mi ENE 4.6 mph - N/A   Mostly Cloudy
8:35 PM 12.0 °F 4.1 °F 5.2 °F 74% 30.49 in 10.0 mi ENE 4.6 mph - N/A   Scattered Clouds
8:55 PM 11.7 °F 3.7 °F 4.6 °F 73% 30.50 in 10.0 mi ENE 4.6 mph - N/A   Scattered Clouds
9:15 PM 11.1 °F 3.1 °F 4.8 °F 76% 30.50 in 10.0 mi ENE 4.6 mph - N/A   Clear
9:35 PM 10.9 °F 4.7 °F 5.0 °F 77% 30.50 in 10.0 mi NE 3.5 mph - N/A   Clear
9:55 PM 10.9 °F 4.7 °F 5.5 °F 79% 30.50 in 10.0 mi NE 3.5 mph - N/A   Mostly Cloudy
10:15 PM 11.3 °F 3.3 °F 5.0 °F 76% 30.50 in 10.0 mi ENE 4.6 mph - N/A   Overcast
10:35 PM 11.5 °F 3.5 °F 4.6 °F 74% 30.50 in 10.0 mi ENE 4.6 mph - N/A   Overcast
10:55 PM 11.7 °F 1.1 °F 4.1 °F 72% 30.50 in 10.0 mi ENE 6.9 mph - N/A   Overcast
11:15 PM 11.8 °F -0.7 °F 3.9 °F 71% 30.49 in 10.0 mi ENE 9.2 mph - N/A   Overcast
11:35 PM 11.8 °F -0.7 °F 3.6 °F 69% 30.49 in 10.0 mi ENE 9.2 mph - N/A   Overcast
11:55 PM 11.7 °F -0.9 °F 3.4 °F 69% 30.49 in 10.0 mi ENE 9.2 mph - N/A   Overcast